カタログに戻る

CZ-6A DEB

運用中PO
NORAD 61325·DEBRIS·🇨🇳 China

打ち上げ Aug 6, 2024 から Taiyuan Satellite Launch Center

Loading…

次のパス (今後24時間)

TLE

最新Source: Space-Track

元期: Sep 14, 2026, 10:40 UTC

1 61325U 24140UN  26257.44474002  .00001663  00000-0  32091-3 0  9999
2 61325  88.9246 251.9524 0079965 228.2276 131.2086 14.60984533107797

AllMySatでCZ-6A DEBをリアルタイム追跡

Download on the App Store